2020-061N (46284 NORAD) Tracking and Keplerian Element Data

This shows tracking and keplerian element data for the satellite.

Feedback or suggestion? Click here.




ElementValue
Catalog46284
Name2020-061N
Epoch Orbit301
Epoch Day267.49011962
Epoch Year2020
RAAN340.2393
Inclination97.5175
Eccentricity0.000207
Argument of Perigee274.1176
Mean Anonmoly85.9816
Mean Motion15.09876025
Decay Rate6.16E-06
L11 46284U 20061N 20267.49011962 .00000616 00000-0 41911-4 0 9995
L22 46284 97.5175 340.2393 0002070 274.1176 85.9816 15.09876025 3015

Live tracking and technical data element details for 2020-061N (NORAD 46284). 2020-061N can be tracked NOW for your location showing map with azimuth and elevation plus other details from your city location.

Track the satellite on the map from your city or location and see movement details for azimuth, elevation, latitude, longitude, range, height, and movement on the map or in text.







IsCatalogInMostPopularTable: catalog: 46284, numindb: -1

Insert: records affected: 1


GetName: 46284 2020-061N

Hit Count: inserted at: Thu, 24 Sep 2020 18:33:12 GMT